User: anonymous   Login
Location: Asni�res
(49.1337°N, 2.3555°E)
Time: 00:17:10
(UTC+00:00)
Language:

Cosmos 371 Rocket - Orbit

View from above orbital plane
View from above orbital plane
View from above satellite
View from above satellite

Ground track
Ground track

The orbit data is extracted from the following two-line orbital elements,

1 04579U 70083B   22026.51850605  .00000144  00000-0  35782-4 0  9993
2 04579  74.0025 108.9426 0009261  64.6772 295.5352 14.60580792720591
Epoch (UTC): 26 January 2022 12:26:38
Eccentricity: 0.0009261
inclination: 74.0025°
perigee height: 685 km
apogee height: 698 km
right ascension of ascending node: 108.9426°
argument of perigee: 64.6772°
revolutions per day: 14.60580792
mean anomaly at epoch: 295.5352°
orbit number at epoch: 72059

The dashed part of the orbit path shows where the satellite is in the earth's shadow,  

DLR